Starlink 30496

operational
NORAD ID: 57919 Int'l Des: 2023-147 Owner: SPXS Country: US Constellation: starlink
LEOCIRCULAR

Starlink 30496について

説明を読み込み中...

リアルタイム位置

3D地球を読み込み中...

次回通過

高度履歴

Altitude vs Time

uPlot chart will show altitude changes over time

軌道要素

1 57919U 23147G 25353.43672829 .00000794 00000-0 73810-4 0 9990
2 57919 43.0030 42.3153 0001383 275.9584 84.1101 15.02536668124549
Epoch: Dec 19, 2025 • Age: 18 hours

現在のステータス

高度 562.2 km
速度 7.59 km/s
衛星直下点 38.85°N, 2°E
打ち上げ日 Sep 24, 2023
運用期間 2.2 years
タイプ internet

技術仕様

分類 Payload
質量 730.00 kg
乾燥質量 700.00 kg
総質量 730.00 kg
長さ 0.30 m
直径 4.10 m
スパン 29.00 m
形状 Box + pan
製造者 SPXS
バスタイプ Starlink V2M
フェーズステータス In Orbit
所有者/国 SPXS/US

大規模コンステレーション

Loading constellations...